Wind_Speed
2 2 2 2 2 1 1 1 2 2 2 2 1 1 1 0 0 0 0 0 1 0 0 1 1 1 1 1 1 1 1 1 1 1 1 0 0 1 1 1 1 0 1
4 3 3 2 2 2 2 2 2 2 2 2 1 1 1 0 0 0 0 0 0 0 0 0 1 1 1 1 0 0 1 1 1 1 1 1 1 2 2 2 2 2 2
4 4 4 3 3 3 2 2 3 3 3 2 2 1 1 1 0 0 0 0 0 0 0 1 1 1 1 1 1 1 1 1 1 2 2 2 2 2 3 3 3 3 3
6 5 5 5 5 4 3 3 3 3 3 3 2 2 1 1 1 1 1 1 0 0 0 1 1 2 1 1 1 1 1 1 2 2 2 2 2 3 3 3 3 3 3
7 7 6 6 5 5 4 4 4 4 4 3 3 3 2 2 2 2 2 2 1 1 1 1 1 2 2 2 2 2 2 2 2 2 2 2 3 3 3 3 4 4 4
8 8 7 7 7 7 6 6 6 5 5 5 4 4 3 3 3 3 3 3 3 3 2 2 2 2 3 3 3 4 4 4 3 3 3 3 3 3 3 4 4 4 5
10 10 9 9 8 8 8 8 7 6 6 6 5 5 4 4 4 4 4 4 4 4 4 3 3 4 4 4 5 5 5 5 5 5 4 4 4 4 4 4 5 5 6
10 11 11 11 10 10 10 10 9 9 8 8 7 7 6 6 6 5 5 6 6 5 5 5 5 5 5 6 6 6 6 6 6 6 6 6 5 5 5 5 6 6 6
10 10 11 12 12 11 11 12 12 11 11 10 10 9 9 8 8 7 7 7 7 7 7 7 7 7 7 7 7 7 7 7 7 7 7 7 7 7 7 7 8 8 8
11 11 10 12 12 13 13 13 13 13 13 12 11 11 11 10 10 9 8 8 8 9 9 9 9 9 9 9 9 9 9 9 9 9 9 9 9 9 9 9 9 9 10
11 11 11 11 13 13 13 14 15 15 14 13 13 13 12 12 12 11 10 10 10 10 11 11 10 10 11 11 11 11 10 10 11 11 11 11 11 11 11 11 11 11 12
11 12 12 13 13 14 13 14 15 15 16 15 15 15 14 14 14 14 13 13 13 13 13 13 12 12 13 13 12 12 12 12 12 12 13 14 14 14 14 14 14 14 14
11 11 13 13 14 14 14 15 15 16 17 17 17 17 16 16 16 15 16 16 15 15 15 15 15 15 14 14 14 14 14 14 14 15 15 15 16 16 16 17 17 17 17
12 12 13 13 14 14 14 15 16 17 18 18 18 18 18 17 17 17 17 17 18 17 17 17 16 16 16 16 16 16 16 17 17 17 17 17 18 18 19 19 19 20 20
13 14 14 14 14 15 16 16 17 18 18 18 19 19 19 19 19 19 19 19 20 19 19 19 19 18 18 19 19 19 19 20 20 20 20 20 21 21 22 22 22 22 23
13 14 15 15 15 16 16 16 17 18 18 19 20 21 20 20 20 21 20 21 21 21 21 21 21 21 21 21 21 21 22 22 23 22 23 23 24 24 25 25 26 26 26
14 15 15 16 16 16 16 17 18 19 19 19 20 22 22 22 22 22 22 22 22 23 22 23 23 23 23 24 24 24 25 25 25 25 25 25 26 27 27 28 28 29 30
15 16 16 16 16 17 17 17 18 19 19 20 20 21 22 23 23 23 23 23 23 24 24 24 25 25 25 26 26 26 26 27 27 28 29 29 29 29 30 31 31 32 33
14 15 15 16 17 17 18 18 18 19 20 20 21 22 23 23 23 24 24 25 25 26 26 26 26 27 27 28 28 29 29 30 30 31 31 32 32 32 32 33 34 35 36
13 13 14 15 16 17 17 17 18 19 20 20 21 21 22 23 23 24 25 26 26 26 27 27 28 29 30 30 31 31 32 33 33 33 34 34 35 35 35 36 37 38 38
13 13 14 15 16 16 16 17 17 18 19 20 21 22 22 23 24 25 25 25 26 26 27 28 29 30 31 31 32 33 34 34 35 35 36 37 37 37 37 38 39 40 40
13 14 15 16 16 16 16 17 18 19 20 21 21 22 23 23 24 24 25 25 26 27 28 29 30 31 31 32 33 33 34 34 35 36 37 38 38 39 40 40 40 40 40
14 14 15 16 16 17 17 17 17 18 19 19 21 22 23 24 24 25 25 26 26 27 28 29 30 31 32 33 34 35 36 36 36 37 37 37 38 38 39 40 40 40 40
14 14 15 16 17 17 18 18 18 18 18 19 20 21 23 24 25 25 26 26 27 28 29 30 31 32 32 33 34 35 35 35 35 35 36 37 38 39 39 40 40 40 41
13 14 15 16 16 16 16 17 17 18 19 19 20 21 22 23 24 25 27 28 29 30 31 32 32 33 34 34 34 34 35 35 34 35 36 37 38 39 40 41 42 43 43
14 14 15 15 15 15 16 17 18 19 19 20 21 21 22 23 24 25 26 28 29 29 30 31 32 33 33 33 33 34 35 35 35 36 37 39 40 41 41 42 44 45 45
Wind_Direction
232 227 209 205 217 216 172 159 178 164 144 134 157 174 189 229 209 201 170 80 68 77 66 56 91 126 126 121 100 67 48 27 19 9 2 302 211 218 205 212 214 209 230
240 233 225 206 211 208 199 198 191 186 181 184 192 191 217 230 192 190 180 58 20 344 235 190 151 145 152 152 159 287 318 328 337 331 303 262 262 251 239 248 245 247 249
238 235 229 224 222 221 215 211 200 209 209 214 220 220 233 254 231 248 272 353 353 288 254 232 202 196 191 196 228 255 277 289 294 294 286 272 266 258 250 257 257 253 253
234 233 229 233 236 230 225 220 213 219 216 218 223 226 236 254 265 264 265 268 285 320 268 224 225 222 226 234 247 248 258 270 279 281 279 272 259 255 257 259 259 257 256
234 229 225 228 235 235 234 228 222 226 227 225 231 234 235 252 273 265 257 249 249 253 243 236 240 231 239 246 251 250 250 258 271 272 266 267 265 266 265 264 260 256 258
239 232 228 228 231 235 238 234 229 231 233 231 232 240 239 240 255 256 253 253 245 241 241 238 239 239 248 255 259 255 256 257 261 263 263 268 271 268 266 268 264 258 258
237 237 235 232 234 237 239 237 233 233 233 232 231 237 243 244 247 252 253 253 248 242 242 247 253 255 257 261 262 258 255 255 257 258 260 265 270 268 268 268 268 266 263
236 235 235 235 238 241 243 239 237 236 236 234 235 237 240 246 245 251 254 252 250 252 256 257 259 260 261 265 264 260 254 253 254 256 258 260 264 266 269 271 269 268 265
239 234 234 236 241 245 246 244 241 239 238 237 238 240 243 246 250 254 257 253 249 253 256 259 263 263 268 271 270 265 258 255 254 256 258 261 265 266 266 268 270 267 263
247 240 241 243 245 244 247 248 244 241 241 241 240 242 246 247 251 256 254 250 253 252 253 259 263 266 270 272 273 268 260 258 255 256 259 263 265 266 266 269 270 269 266
247 245 245 247 250 249 250 247 244 243 243 243 243 244 246 248 251 255 253 251 254 255 255 257 261 266 270 270 270 268 265 265 260 260 262 263 265 266 268 270 270 270 268
249 249 248 251 253 254 254 251 246 245 247 247 246 246 247 251 253 255 256 253 253 255 258 258 259 264 267 270 269 267 267 267 265 264 263 264 265 267 269 270 271 270 270
250 252 252 252 253 255 256 255 251 248 250 251 251 249 251 254 254 257 258 256 255 256 259 261 261 263 266 269 270 268 269 267 269 270 269 267 266 267 270 272 272 272 272
253 254 254 254 256 255 256 254 255 253 253 253 254 252 252 254 256 259 260 259 257 258 261 263 265 264 267 269 271 270 266 267 271 270 270 269 269 269 271 273 274 274 274
256 254 253 254 258 260 258 255 253 254 254 254 254 255 256 255 257 259 261 261 260 259 260 262 264 265 266 268 271 272 268 269 272 271 272 273 272 271 272 273 274 275 275
256 254 255 259 262 266 262 256 253 253 254 255 255 256 256 257 258 260 261 261 261 261 263 264 264 265 265 266 270 271 271 271 272 271 274 275 275 274 273 273 273 274 275
255 258 262 263 263 264 261 256 255 254 255 256 256 257 258 259 261 262 262 261 261 263 263 263 264 267 266 266 269 271 271 271 270 272 274 276 277 276 274 274 274 275 275
259 262 265 265 263 264 264 263 263 261 259 257 256 258 260 261 261 262 263 264 264 264 265 265 267 267 267 268 270 272 273 272 271 273 274 275 276 277 276 275 275 275 275
264 265 266 266 266 266 264 263 263 262 259 259 260 261 260 261 262 262 263 264 266 266 267 267 269 269 268 270 272 273 273 274 274 275 275 276 277 276 276 276 275 274 275
264 266 268 268 268 265 261 262 263 264 262 261 261 261 260 262 264 265 265 266 266 267 268 269 270 271 272 273 274 274 274 276 274 274 274 276 277 277 277 277 276 276 276
266 267 268 270 271 267 264 265 266 267 263 262 262 262 263 265 267 267 267 267 268 270 272 272 273 273 274 275 276 275 275 276 276 275 276 277 276 276 276 277 277 277 276
269 270 269 270 270 268 267 269 268 269 266 265 267 268 268 267 268 270 269 270 270 272 273 274 275 275 275 277 277 277 277 278 277 276 277 276 276 276 276 276 277 278 277
273 270 270 271 270 267 266 269 269 269 270 268 269 270 269 267 268 271 272 272 272 273 273 275 277 277 278 279 278 278 279 280 279 277 276 277 277 277 277 278 279 279 278
273 271 270 272 272 270 270 268 267 271 272 273 272 271 271 270 270 271 272 273 274 274 275 277 278 279 280 281 281 280 280 280 280 279 279 279 279 280 279 279 279 279 279
277 274 274 275 275 274 273 271 272 274 276 277 278 277 274 275 273 272 273 274 275 275 276 279 280 282 284 285 285 284 283 282 280 279 280 281 281 281 282 281 280 280 279
280 280 280 281 277 275 274 273 274 275 277 279 281 281 278 276 275 273 277 278 277 278 281 281 282 284 285 285 285 285 285 283 281 280 280 281 281 281 282 282 282 282 282
Height
5907 5907 5907 5908 5908 5908 5908 5908 5908 5909 5909 5909 5909 5909 5909 5908 5908 5908 5908 5907 5907 5907 5906 5906 5906 5905 5905 5905 5905 5905 5904 5904 5903 5903 5902 5902 5902 5901 5901 5901 5901 5900 5900
5906 5907 5907 5907 5907 5908 5908 5908 5908 5908 5909 5909 5909 5909 5909 5909 5908 5908 5908 5907 5907 5907 5907 5906 5906 5905 5905 5905 5905 5904 5904 5904 5903 5903 5902 5902 5902 5901 5901 5901 5900 5900 5900
5905 5906 5906 5906 5907 5907 5907 5908 5908 5908 5909 5909 5909 5909 5909 5909 5908 5908 5908 5907 5907 5907 5906 5906 5906 5905 5905 5905 5905 5904 5904 5903 5903 5902 5902 5902 5901 5901 5901 5900 5900 5900 5899
5903 5904 5905 5905 5906 5906 5907 5907 5908 5908 5908 5908 5909 5909 5909 5908 5908 5908 5908 5907 5907 5907 5906 5906 5906 5905 5905 5905 5904 5904 5903 5903 5902 5902 5901 5901 5901 5900 5900 5900 5899 5899 5899
5902 5902 5903 5904 5905 5905 5906 5907 5907 5908 5908 5908 5908 5908 5908 5908 5908 5908 5907 5907 5907 5906 5906 5906 5905 5905 5905 5904 5904 5904 5903 5903 5902 5901 5901 5901 5900 5900 5899 5899 5899 5898 5898
5900 5900 5901 5902 5903 5904 5905 5905 5906 5906 5907 5907 5908 5908 5908 5908 5908 5907 5907 5907 5906 5906 5906 5905 5905 5905 5904 5904 5903 5903 5902 5902 5901 5901 5900 5900 5900 5899 5899 5898 5898 5897 5897
5898 5899 5900 5901 5901 5902 5903 5904 5904 5905 5906 5906 5907 5907 5907 5907 5907 5907 5906 5906 5906 5905 5905 5905 5905 5904 5903 5903 5902 5902 5901 5901 5900 5900 5900 5899 5899 5898 5898 5897 5897 5896 5896
5895 5896 5897 5898 5899 5900 5901 5902 5902 5903 5904 5905 5905 5905 5906 5906 5906 5906 5905 5905 5905 5904 5904 5904 5904 5903 5902 5902 5901 5900 5900 5899 5899 5899 5898 5898 5898 5897 5897 5896 5896 5895 5895
5893 5894 5895 5896 5896 5897 5898 5899 5900 5901 5902 5903 5903 5904 5904 5904 5905 5905 5904 5904 5903 5903 5903 5903 5902 5902 5901 5900 5900 5899 5898 5898 5897 5897 5897 5897 5896 5896 5895 5895 5894 5893 5893
5890 5891 5892 5893 5894 5895 5895 5896 5897 5898 5899 5900 5901 5901 5902 5902 5903 5903 5903 5902 5902 5901 5901 5901 5900 5900 5899 5898 5898 5897 5896 5896 5895 5895 5895 5895 5894 5893 5893 5892 5892 5891 5891
5887 5888 5889 5890 5891 5892 5892 5893 5894 5895 5896 5897 5898 5899 5899 5900 5900 5900 5900 5900 5900 5899 5899 5899 5898 5898 5897 5896 5895 5895 5894 5894 5893 5893 5892 5892 5892 5891 5890 5890 5889 5888 5888
5884 5885 5886 5887 5888 5888 5889 5890 5891 5892 5893 5894 5895 5895 5896 5896 5897 5897 5897 5897 5897 5897 5897 5896 5896 5895 5894 5893 5893 5892 5891 5891 5890 5890 5890 5889 5889 5888 5887 5887 5886 5885 5884
5881 5882 5883 5883 5884 5885 5885 5886 5887 5888 5889 5890 5891 5892 5892 5893 5893 5894 5894 5894 5894 5894 5893 5893 5892 5892 5891 5890 5889 5888 5888 5887 5887 5886 5886 5885 5885 5884 5884 5883 5882 5881 5880
5878 5878 5879 5880 5881 5881 5881 5882 5883 5884 5885 5886 5887 5887 5888 5888 5889 5890 5890 5890 5889 5889 5889 5889 5889 5888 5887 5886 5886 5885 5884 5884 5883 5882 5882 5881 5880 5879 5879 5878 5877 5876 5875
5875 5875 5876 5876 5877 5877 5877 5878 5878 5879 5880 5881 5882 5883 5883 5884 5884 5885 5885 5885 5885 5885 5885 5884 5884 5884 5883 5882 5881 5881 5880 5879 5878 5877 5877 5876 5875 5874 5873 5872 5872 5871 5870
5871 5872 5872 5872 5873 5873 5873 5873 5874 5874 5876 5876 5877 5878 5878 5879 5879 5879 5879 5880 5880 5880 5880 5879 5879 5879 5878 5877 5876 5876 5875 5874 5873 5872 5871 5870 5869 5868 5867 5866 5865 5864 5863
5868 5868 5869 5869 5869 5869 5868 5868 5869 5870 5870 5871 5871 5872 5873 5873 5873 5874 5874 5874 5874 5874 5874 5874 5873 5873 5872 5872 5871 5870 5869 5868 5867 5866 5865 5864 5862 5861 5860 5859 5858 5857 5856
5864 5864 5864 5864 5864 5864 5864 5864 5864 5865 5865 5866 5866 5867 5867 5867 5868 5868 5868 5868 5868 5868 5868 5868 5867 5866 5866 5865 5864 5864 5863 5861 5860 5859 5858 5856 5855 5854 5852 5851 5850 5849 5847
5860 5860 5860 5860 5859 5859 5859 5859 5859 5860 5860 5860 5861 5861 5862 5862 5862 5862 5862 5862 5862 5861 5861 5861 5860 5860 5859 5858 5857 5856 5855 5854 5853 5851 5850 5848 5847 5846 5844 5843 5841 5840 5838
5856 5856 5856 5855 5855 5854 5854 5855 5855 5855 5855 5855 5855 5855 5856 5856 5856 5856 5856 5856 5855 5855 5854 5854 5853 5852 5851 5850 5849 5848 5847 5845 5844 5843 5841 5840 5838 5837 5835 5833 5832 5830 5828
5852 5852 5851 5851 5850 5850 5850 5850 5851 5851 5851 5851 5850 5850 5850 5850 5850 5850 5849 5849 5848 5848 5847 5847 5846 5844 5843 5842 5840 5839 5838 5836 5835 5833 5832 5830 5828 5827 5825 5823 5822 5820 5817
5847 5847 5847 5847 5846 5846 5846 5846 5846 5846 5845 5845 5844 5844 5844 5843 5843 5843 5843 5842 5841 5841 5840 5839 5838 5836 5835 5833 5832 5830 5828 5827 5825 5824 5822 5820 5818 5816 5814 5812 5810 5808 5806
5843 5843 5843 5842 5842 5842 5842 5841 5841 5840 5840 5839 5839 5838 5837 5837 5836 5836 5835 5835 5834 5833 5832 5831 5829 5828 5826 5825 5823 5821 5819 5817 5815 5813 5811 5810 5807 5805 5803 5801 5799 5796 5794
5839 5839 5838 5838 5838 5837 5837 5836 5836 5836 5835 5834 5833 5832 5831 5830 5829 5829 5828 5827 5827 5826 5824 5823 5822 5820 5818 5816 5814 5812 5809 5807 5805 5803 5801 5799 5797 5794 5792 5789 5787 5785 5782
5836 5835 5834 5834 5833 5832 5832 5831 5831 5831 5830 5829 5827 5826 5825 5824 5823 5822 5821 5820 5819 5818 5816 5815 5813 5811 5808 5806 5804 5802 5800 5797 5795 5793 5790 5788 5786 5783 5780 5778 5775 5772 5770
5832 5831 5830 5829 5829 5828 5827 5827 5826 5826 5824 5823 5822 5820 5819 5817 5816 5815 5814 5813 5811 5810 5808 5806 5804 5802 5799 5797 5794 5792 5790 5787 5784 5782 5780 5777 5775 5772 5769 5766 5763 5760 5757